Laredo, TX

11:54 PM CDT en Abril 23, 2018 (GMT -0500)
Laredo International

Tiempo Historia de KLRD - Enero, 2018

Change the Weather History Date:

Sábado, Enero 13, 2018

  Actual Average Record
Temperature  
Temperatura media 48 ° F 56 ° F  
Temperatura máxima 60 ° F 67 ° F 93 ° F (1914)
Temperatura mínima 35 ° F 46 ° F 19 ° F (1975)
Degree Days  
Grados día de calefacción 17 10  
Month to date heating degree days 164 130  
Since 1 July heating degree days 546 520  
Cooling Degree Days 0 1  
Month to date cooling degree days 1 13  
Year to date cooling degree days 1 13  
Moisture  
Punto de rocío 21 ° F    
Average Humidity 39    
Maximum Humidity 56    
Minimum Humidity 19    
Precipitación  
Precipitación 0.00 pul 0.03 pul 1.20 pul (1903)
Month to date precipitation 0.01 0.38  
Year to date precipitation 0.01 0.38  
Presión al nivel del mar  
Presión al nivel del mar 30.53 pul    
Viento  
Velocidad del viento 9 mph (ENE)    
Velocidad máxima del viento 15 mph    
Max Gust Speed -    
Visibilidad 10 Millas    
Eventos      
T = Trace of Precipitation, MM = Missing Value Source: NWS Daily Summary

Daily Weather History Graph

Daily Weather History Graph

Search for Another Location

Airport or City:

Astronomía

Jan. 13, 2018 Salida Puesta
Hora real 7:29 AM CST 6:03 PM CST
Crepúsculo civil 7:04 AM CST 6:28 PM CST
Crepúsculo náutico 6:35 AM CST 6:57 PM CST
Crepúsculo astronómico 6:07 AM CST 7:25 PM CST
Luna 4:37 AM CST (1/13) 3:37 PM CST (1/13)
Horas de luz 11h 24m
Horas de luz
10h 34m
Creciente menguante, 10% of the Moon is Illuminated
Ene 13
Creciente menguante
Ene 16
Nueva
Ene 24
Cuarto creciente
Ene 31
Luna llena
Feb 7
Cuarto menguante

Hourly Weather History & Observations

Hora (CST) Temp. Vientos helados Punto de rocío Humedad Presión Visibilidad Wind Dir Velocidad del viento Velocidad de ráfagas Precip Eventos Condiciones
12:56 AM 45.0 ° F 40.6 ° F 25.0 ° F 46% 30.37 pul 10.0 mi ENE 8.1 mph - N/A   Despejado
1:56 AM 43.0 ° F 37.2 ° F 26.1 ° F 51% 30.38 pul 10.0 mi NE 10.4 mph - N/A   Despejado
2:56 AM 42.1 ° F 34.5 ° F 23.0 ° F 47% 30.40 pul 10.0 mi ENE 15.0 mph - N/A   Despejado
3:56 AM 39.9 ° F 32.5 ° F 21.9 ° F 49% 30.44 pul 10.0 mi ENE 12.7 mph - N/A   Despejado
4:56 AM 37.9 ° F 30.5 ° F 21.0 ° F 51% 30.46 pul 10.0 mi ENE 11.5 mph - N/A   Despejado
5:56 AM 37.0 ° F 30.4 ° F 19.9 ° F 50% 30.52 pul 10.0 mi ENE 9.2 mph - N/A   Despejado
6:56 AM 35.1 ° F 30.1 ° F 21.0 ° F 57% 30.53 pul 10.0 mi ENE 5.8 mph - N/A   Despejado
7:56 AM 35.1 ° F 31.0 ° F 19.9 ° F 54% 30.58 pul 10.0 mi ENE 4.6 mph - N/A   Despejado
8:56 AM 39.0 ° F 31.8 ° F 19.0 ° F 45% 30.61 pul 10.0 mi ENE 11.5 mph - N/A   Despejado
9:56 AM 45.0 ° F 40.1 ° F 17.1 ° F 33% 30.62 pul 10.0 mi Este 9.2 mph - N/A   Despejado
10:56 AM 46.9 ° F - 18.0 ° F 32% 30.64 pul 10.0 mi ENE 9.2 mph - N/A   Despejado
11:56 AM 50.0 ° F - 17.1 ° F 27% 30.63 pul 10.0 mi NE 5.8 mph - N/A   Despejado
1:56 PM 57.0 ° F - 16.0 ° F 20% 30.57 pul 10.0 mi NE 5.8 mph - N/A   Despejado
2:56 PM 57.9 ° F - 17.1 ° F 20% 30.55 pul 10.0 mi Este 5.8 mph - N/A   Despejado
3:56 PM 59.0 ° F - 19.0 ° F 21% 30.54 pul 10.0 mi NE 5.8 mph - N/A   Despejado
4:56 PM 59.0 ° F - 19.0 ° F 21% 30.53 pul 10.0 mi ENE 5.8 mph - N/A   Despejado
5:56 PM 55.0 ° F - 19.9 ° F 25% 30.53 pul 10.0 mi ENE 5.8 mph - N/A   Despejado
6:56 PM 51.1 ° F - 21.9 ° F 32% 30.52 pul 10.0 mi ENE 6.9 mph - N/A   Despejado
7:56 PM 50.0 ° F - 21.9 ° F 33% 30.53 pul 10.0 mi ENE 8.1 mph - N/A   Despejado
8:56 PM 45.0 ° F 41.2 ° F 24.1 ° F 44% 30.53 pul 10.0 mi Este 6.9 mph - N/A   Despejado
9:56 PM 43.0 ° F 39.5 ° F 25.0 ° F 49% 30.54 pul 10.0 mi Este 5.8 mph - N/A   Despejado
10:56 PM 44.1 ° F 39.5 ° F 23.0 ° F 43% 30.54 pul 10.0 mi Este 8.1 mph - N/A   Despejado
11:56 PM 43.0 ° F 38.2 ° F 24.1 ° F 47% 30.53 pul 10.0 mi ESE 8.1 mph - N/A   Despejado